| time (UTC) | temp C | wind direction | speed KPH | gust KPH | rain 1hr cm | rain 24hr cm | rain mn cm | humidity % | barometer mb |
| 20260506134733 | 7 | 200 | 6.4 | 17.7 | 0.00 | 0.00 | 0.00 | 51 | 1009.0 |
| 20260506131736 | 7 | 188 | 6.4 | 19.3 | 0.00 | 0.00 | 0.00 | 51 | 1008.8 |
| 20260506124720 | 7 | 258 | 6.4 | 17.7 | 0.00 | 0.00 | 0.00 | 48 | 1008.5 |
| 20260506121735 | 7 | 240 | 8.0 | 24.1 | 0.00 | 0.00 | 0.00 | 50 | 1008.6 |
| 20260506114739 | 6 | 265 | 6.4 | 19.3 | 0.00 | 0.00 | 0.00 | 54 | 1008.5 |
| 20260506111732 | 6 | 257 | 9.7 | 25.7 | 0.00 | 0.00 | 0.00 | 58 | 1008.0 |
| 20260506104728 | 5 | 245 | 11.3 | 27.4 | 0.00 | 0.00 | 0.00 | 59 | 1007.9 |
| 20260506101727 | 5 | 253 | 6.4 | 19.3 | 0.00 | 0.00 | 0.00 | 60 | 1007.5 |
| 20260506094722 | 5 | 221 | 3.2 | 17.7 | 0.00 | 0.00 | 0.00 | 61 | 1007.1 |
| 20260506091721 | 6 | 270 | 8.0 | 19.3 | 0.00 | 0.00 | 0.00 | 59 | 1006.8 |
| 20260506084725 | 5 | 246 | 4.8 | 17.7 | 0.00 | 0.00 | 0.00 | 59 | 1006.7 |
| 20260506081733 | 5 | 252 | 6.4 | 27.4 | 0.00 | 0.00 | 0.00 | 60 | 1006.4 |
| 20260506071731 | 5 | 259 | 6.4 | 25.7 | 0.00 | 0.00 | 0.00 | 62 | 1005.6 |
| 20260506061728 | 3 | 274 | 12.9 | 25.7 | 0.00 | 0.00 | 0.00 | 63 | 1004.9 |
| 20260506044731 | 3 | 283 | 14.5 | 24.1 | 0.00 | 0.00 | 0.00 | 65 | 1003.9 |
| 20260506041731 | 3 | 214 | 11.3 | 20.9 | 0.00 | 0.00 | 0.00 | 67 | 1003.8 |
| 20260506034723 | 3 | 269 | 4.8 | 24.1 | 0.00 | 0.00 | 0.00 | 68 | 1003.3 |
| 20260506031723 | 2 | 253 | 4.8 | 20.9 | 0.00 | 0.00 | 0.00 | 70 | 1003.2 |
| 20260506024729 | 2 | 285 | 3.2 | 19.3 | 0.00 | 0.00 | 0.00 | 71 | 1002.9 |
| 20260506021740 | 2 | 274 | 6.4 | 22.5 | 0.00 | 0.00 | 0.00 | 71 | 1002.7 |
| 20260506014727 | 2 | 286 | 1.6 | 16.1 | 0.00 | 0.00 | 0.00 | 70 | 1002.6 |
| 20260506011736 | 3 | 255 | 6.4 | 20.9 | 0.00 | 0.00 | 0.00 | 69 | 1002.2 |
| 20260506004727 | 3 | 271 | 11.3 | 20.9 | 0.00 | 0.00 | 0.00 | 68 | 1002.1 |
| 20260506001726 | 3 | 245 | 9.7 | 22.5 | 0.00 | 0.00 | 0.00 | 66 | 1001.7 |
| 20260505234723 | 3 | 285 | 9.7 | 19.3 | 0.00 | 0.00 | 0.00 | 66 | 1001.7 |
| 20260505231733 | 3 | 300 | 3.2 | 16.1 | 0.00 | 0.00 | 0.00 | 66 | 1001.5 |
| 20260505224723 | 3 | 259 | 6.4 | 20.9 | 0.00 | 0.00 | 0.00 | 65 | 1001.4 |
| 20260505221733 | 4 | 267 | 3.2 | 19.3 | 0.00 | 0.00 | 0.00 | 63 | 1001.3 |
| 20260505214725 | 4 | 271 | 1.6 | 14.5 | 0.00 | 0.00 | 0.00 | 64 | 1001.2 |
| 20260505211734 | 4 | 251 | 4.8 | 12.9 | 0.00 | 0.00 | 0.00 | 63 | 1001.2 |
| 20260505204738 | 3 | 269 | 0.0 | 11.3 | 0.00 | 0.10 | 0.00 | 67 | 1000.9 |
| 20260505201729 | 4 | 238 | 0.0 | 4.8 | 0.00 | 0.10 | 0.00 | 71 | 1000.7 |
| 20260505194730 | 5 | 236 | 1.6 | 6.4 | 0.00 | 0.33 | 0.00 | 68 | 1000.7 |
| 20260505191725 | 5 | 282 | 4.8 | 9.7 | 0.00 | 0.33 | 0.00 | 64 | 1000.6 |
| 20260505184735 | 6 | 263 | 3.2 | 14.5 | 0.00 | 0.51 | 0.00 | 60 | 1000.5 |
| 20260505181725 | 6 | 267 | 6.4 | 17.7 | 0.00 | 0.51 | 0.00 | 53 | 1000.1 |
| 20260505174727 | 7 | 250 | 4.8 | 14.5 | 0.00 | 0.51 | 0.00 | 50 | 1000.0 |
| 20260505171734 | 6 | 257 | 6.4 | 17.7 | 0.00 | 0.51 | 0.00 | 54 | 999.9 |
| 20260505164721 | 7 | 241 | 9.7 | 20.9 | 0.00 | 0.51 | 0.00 | 49 | 999.6 |
| 20260505161738 | 8 | 226 | 8.0 | 22.5 | 0.00 | 0.51 | 0.00 | 43 | 999.5 |
| 20260505151727 | 8 | 236 | 9.7 | 35.4 | 0.00 | 0.51 | 0.00 | 42 | 999.2 |